Temp
52 52 50 49 49 48 47 47 47 46 47 47 46 46 46 46 47 46 45 44 44 44
50 49 48 47 47 47 46 48 46 45 45 45 45 45 44 45 44 44 44 43 43 42
48 47 47 47 45 45 45 45 44 44 44 43 44 43 43 43 43 42 42 42 40 40
46 45 45 45 45 44 44 43 43 43 42 42 42 42 42 41 42 39 39 40 39 38
44 45 44 43 43 43 42 42 42 42 41 41 40 40 40 39 39 38 37 37 37 37
43 43 43 42 42 42 41 41 41 40 39 39 38 38 39 38 38 37 37 36 36 35
43 43 43 42 41 40 40 40 39 39 38 38 37 38 38 38 37 37 36 36 35 35
42 42 42 41 40 40 39 39 39 38 38 37 37 38 36 37 37 36 35 35 36 35
42 41 40 40 39 39 38 38 37 37 36 36 37 32 33 34 36 36 35 34 35 36
41 40 39 39 39 38 37 37 36 36 36 35 36 32 32 32 36 35 35 34 34 34
40 39 38 38 38 36 37 36 36 35 35 35 35 31 31 31 36 35 35 34 34 34
40 38 37 37 36 36 36 36 35 35 34 34 34 31 30 32 35 34 34 34 34 33
39 38 36 36 35 36 35 35 35 34 34 31 33 31 30 31 33 31 31 33 33 30
38 37 36 36 36 35 35 34 32 31 32 33 32 32 29 30 31 29 29 29 29 30
MSLP
1030.64 1030.87 1031.08 1031.45 1031.73 1031.95 1032.16 1032.34 1032.43 1032.26 1032.08 1031.86 1031.53 1031.31 1031.15 1030.70 1030.32 1030.17 1030.02 1029.79 1029.60 1029.31
1031.25 1031.36 1031.63 1031.87 1032.12 1032.33 1032.50 1032.44 1032.64 1032.48 1032.26 1032.06 1031.80 1031.58 1031.30 1030.88 1030.62 1030.39 1030.18 1029.94 1029.82 1029.52
1031.62 1031.85 1032.10 1032.21 1032.41 1032.55 1032.65 1032.71 1032.66 1032.57 1032.36 1032.21 1032.00 1031.77 1031.41 1031.02 1030.68 1030.57 1030.39 1030.23 1030.06 1029.63
1031.96 1032.13 1032.32 1032.44 1032.66 1032.75 1032.85 1032.83 1032.83 1032.71 1032.39 1032.21 1032.07 1031.86 1031.42 1031.22 1030.84 1030.78 1030.57 1030.46 1030.08 1029.74
1032.16 1032.29 1032.40 1032.57 1032.85 1033.02 1032.96 1033.00 1033.09 1032.85 1032.46 1032.30 1032.20 1031.99 1031.62 1031.39 1031.09 1030.86 1030.63 1030.40 1030.01 1029.57
1032.27 1032.30 1032.57 1032.76 1032.90 1033.05 1033.07 1033.14 1033.04 1032.75 1032.58 1032.51 1032.48 1032.15 1031.83 1031.58 1031.19 1030.85 1030.64 1030.39 1029.96 1029.49
1032.18 1032.41 1032.63 1032.81 1032.95 1033.05 1033.14 1033.12 1033.00 1032.73 1032.67 1032.64 1032.52 1032.17 1031.90 1031.43 1030.99 1030.67 1030.40 1030.17 1029.81 1029.35
1032.18 1032.48 1032.62 1032.72 1032.99 1033.05 1033.02 1033.04 1032.99 1032.79 1032.62 1032.51 1032.32 1032.12 1031.96 1031.32 1030.76 1030.36 1029.93 1029.63 1029.28 1028.89
1032.04 1032.24 1032.41 1032.67 1032.88 1032.89 1032.87 1032.89 1032.87 1032.57 1032.48 1032.26 1032.17 1032.57 1032.16 1031.64 1030.66 1030.02 1029.58 1029.08 1028.61 1028.18
1031.84 1032.05 1032.29 1032.57 1032.75 1032.73 1032.67 1032.68 1032.47 1032.29 1032.28 1032.03 1031.98 1032.31 1031.95 1031.52 1030.48 1029.68 1029.14 1028.61 1028.19 1027.64
1031.76 1031.87 1032.09 1032.27 1032.42 1032.59 1032.54 1032.33 1032.07 1032.00 1031.99 1031.83 1031.68 1031.99 1031.77 1031.35 1030.05 1029.28 1028.66 1028.21 1027.81 1027.28
1031.51 1031.61 1031.76 1031.90 1032.10 1032.27 1032.25 1032.04 1031.90 1031.82 1031.72 1031.61 1031.36 1031.63 1031.62 1031.09 1029.83 1029.01 1028.38 1027.85 1027.32 1027.05
1031.22 1031.39 1031.57 1031.77 1032.01 1032.18 1032.15 1031.92 1031.78 1031.61 1031.50 1031.63 1031.22 1031.23 1031.33 1030.87 1029.79 1028.99 1028.29 1027.55 1026.97 1026.64
1031.07 1031.26 1031.53 1031.74 1031.96 1032.05 1031.97 1031.96 1031.85 1031.52 1031.38 1031.19 1031.10 1030.88 1030.94 1030.64 1029.78 1028.96 1028.05 1027.37 1026.77 1026.23
Wind_Speed
9 6 7 8 6 6 5 5 7 7 7 8 9 9 8 6 6 7 7 10 9 8
8 9 8 8 7 5 6 5 6 7 7 8 8 8 8 5 6 8 8 9 10 9
8 8 8 7 7 6 6 6 6 7 7 7 7 8 7 6 7 9 7 8 11 10
7 7 7 6 5 5 5 6 7 6 6 7 8 9 7 8 8 10 10 10 10 12
7 6 6 6 5 5 5 6 6 6 6 7 8 8 8 9 9 10 11 12 13 13
6 6 5 5 5 5 5 6 6 6 7 7 8 7 7 9 9 10 11 12 13 14
5 5 3 4 4 4 5 5 6 5 6 6 7 6 8 9 11 11 11 12 12 13
5 5 3 3 2 3 4 5 6 6 6 6 6 5 10 11 11 12 13 12 12 13
6 5 4 2 2 3 4 5 5 6 6 7 5 8 13 13 13 12 12 13 13 15
6 5 5 2 3 4 5 6 6 6 7 7 7 10 14 16 12 12 12 13 14 14
6 5 5 2 3 4 5 6 6 6 7 7 6 10 15 17 13 12 13 14 15 16
6 5 4 3 3 5 6 6 6 6 7 8 8 11 14 16 13 13 14 14 15 16
6 5 4 2 3 4 5 6 6 7 7 8 9 11 14 15 11 12 11 14 15 18
5 5 3 2 3 4 5 6 7 7 6 7 8 9 14 17 12 10 12 12 12 13
Wind_Direction
95 87 87 81 78 68 59 44 32 31 27 21 16 13 8 5 13 9 2 354 354 338
94 95 96 91 82 74 60 44 34 23 16 16 15 11 2 8 7 356 355 344 343 336
107 98 94 90 79 74 63 46 24 15 17 13 9 7 359 360 359 349 350 342 335 334
108 101 96 86 75 69 62 31 17 7 10 13 9 358 349 350 347 341 339 339 332 325
117 107 90 77 72 58 42 26 6 3 12 8 357 349 342 337 338 336 335 333 327 324
124 107 92 85 76 50 19 9 2 9 5 353 348 339 339 331 328 330 330 327 321 320
134 129 116 96 67 32 7 354 353 0 352 346 340 334 332 327 326 324 323 322 317 314
149 151 140 116 52 8 356 347 340 339 345 341 335 350 333 327 321 321 322 321 317 311
166 171 158 144 328 333 336 334 327 338 338 336 336 339 328 328 320 321 320 320 319 317
176 181 176 194 310 324 325 323 335 341 333 333 331 335 332 331 316 319 322 323 322 318
187 188 180 234 306 313 317 327 337 334 328 326 332 330 333 328 314 318 323 326 320 319
195 190 190 258 304 319 316 326 330 326 322 322 321 343 331 324 322 322 324 323 321 322
189 191 208 256 298 312 314 318 323 320 319 322 316 335 328 326 320 320 323 322 321 322
184 194 206 237 279 299 311 316 314 316 314 310 327 325 331 326 324 325 323 323 321 323